BAW33K EGLL-KJFK

Flight info

Callsign BAW33K
Flight time N/A
Altitude 30000
Route CPT5J CPT L9 BUCGO/N0406F240 L9 ARPAK/N0471F360 DCT FELCA DCT FADZU/N0476F380 DCT OFSOX DCT BANBA DCT DOLIP DCT LIMRI/M083F390 DCT 53N020W 53N030W 53N040W 52N050W DCT TUDEP/N0488F400 N526A TOPPS DCT ENE PARCH4
Aircraft B772/H-SDE2E3FGHIJ5LORVWXY/LB1D1

Departure

Time 2026-05-04 08:14
Airport London Heathrow Airport (EGLL)

Arrival

Time N/A
Airport John F. Kennedy International Airport (KJFK)
Time Latitude Longitude Altitude Speed Heading
2026-05-04 07:38 51.47224 -0.47501 84 ft 0 kts 270°
2026-05-04 07:58 51.47224 -0.47499 84 ft 1 kts 270°
2026-05-04 07:59 51.47224 -0.47475 84 ft 2 kts 270°
2026-05-04 07:59 51.47224 -0.47452 84 ft 1 kts 270°
2026-05-04 07:59 51.47224 -0.47436 84 ft 2 kts 266°
2026-05-04 07:59 51.47227 -0.47413 84 ft 2 kts 247°
2026-05-04 08:00 51.47234 -0.47392 84 ft 2 kts 233°
2026-05-04 08:00 51.47244 -0.47375 84 ft 2 kts 218°
2026-05-04 08:00 51.47257 -0.47363 84 ft 2 kts 203°
2026-05-04 08:02 51.47281 -0.47354 84 ft 0 kts 179°
2026-05-04 08:03 51.47258 -0.47354 84 ft 6 kts 180°
2026-05-04 08:04 51.47189 -0.47354 84 ft 12 kts 180°
2026-05-04 08:04 51.47095 -0.47354 84 ft 14 kts 181°
2026-05-04 08:04 51.46990 -0.47356 84 ft 15 kts 180°
2026-05-04 08:04 51.46880 -0.47352 83 ft 16 kts 178°
2026-05-04 08:05 51.46761 -0.47352 83 ft 15 kts 181°
2026-05-04 08:05 51.46704 -0.47351 84 ft 5 kts 178°
2026-05-04 08:05 51.46668 -0.47320 83 ft 8 kts 126°
2026-05-04 08:05 51.46656 -0.47205 84 ft 12 kts 90°
2026-05-04 08:06 51.46656 -0.47064 84 ft 13 kts 90°
2026-05-04 08:06 51.46655 -0.46908 84 ft 14 kts 91°
2026-05-04 08:06 51.46656 -0.46738 84 ft 15 kts 89°
2026-05-04 08:06 51.46662 -0.46559 84 ft 16 kts 88°
2026-05-04 08:08 51.46661 -0.45086 84 ft 20 kts 92°
2026-05-04 08:08 51.46660 -0.44853 84 ft 21 kts 94°
2026-05-04 08:10 51.46669 -0.43990 84 ft 0 kts 90°
2026-05-04 08:11 51.46668 -0.43949 84 ft 6 kts 90°
2026-05-04 08:11 51.46666 -0.43848 84 ft 11 kts 94°
2026-05-04 08:12 51.46664 -0.43741 84 ft 10 kts 89°
2026-05-04 08:12 51.46645 -0.43637 84 ft 11 kts 135°
2026-05-04 08:12 51.46558 -0.43600 84 ft 13 kts 176°
2026-05-04 08:12 51.46499 -0.43618 84 ft 5 kts 231°
2026-05-04 08:13 51.46493 -0.43676 84 ft 0 kts 269°
2026-05-04 08:13 51.46493 -0.43696 84 ft 6 kts 269°
2026-05-04 08:13 51.46493 -0.44023 84 ft 65 kts 271°
2026-05-04 08:14 51.46489 -0.45178 84 ft 138 kts 269°
2026-05-04 08:14 51.46499 -0.46958 363 ft 170 kts 271°
2026-05-04 08:14 51.46479 -0.48894 1030 ft 180 kts 271°
2026-05-04 08:16 51.45701 -0.66256 4093 ft 266 kts 260°
2026-05-04 08:16 51.45507 -0.69175 4742 ft 269 kts 267°
2026-05-04 08:16 51.45443 -0.72176 5401 ft 271 kts 269°
2026-05-04 08:17 51.45408 -0.75196 6047 ft 274 kts 269°
2026-05-04 08:17 51.45377 -0.78274 6680 ft 277 kts 269°
2026-05-04 08:17 51.45347 -0.81332 7366 ft 277 kts 268°
2026-05-04 08:17 51.45316 -0.84392 8016 ft 279 kts 268°
2026-05-04 08:19 51.47491 -1.07222 11129 ft 338 kts 279°
2026-05-04 08:19 51.47915 -1.10955 11669 ft 344 kts 279°
2026-05-04 08:20 51.48339 -1.14707 12298 ft 347 kts 279°
2026-05-04 08:20 51.48823 -1.18493 12916 ft 351 kts 285°
2026-05-04 08:20 51.49811 -1.22112 13527 ft 357 kts 300°
2026-05-04 08:20 51.51341 -1.25222 14136 ft 363 kts 313°
2026-05-04 08:21 51.53164 -1.28052 14789 ft 367 kts 315°
2026-05-04 08:21 51.55030 -1.30865 15475 ft 370 kts 315°
2026-05-04 08:21 51.56907 -1.33698 16131 ft 373 kts 315°
2026-05-04 08:21 51.58779 -1.36531 16756 ft 377 kts 315°
2026-05-04 08:22 51.60560 -1.39604 17376 ft 379 kts 306°
2026-05-04 08:22 51.61973 -1.43162 17973 ft 381 kts 298°
2026-05-04 08:24 51.70452 -1.70464 22183 ft 398 kts 281°
2026-05-04 08:24 51.70882 -1.74832 22699 ft 401 kts 275°
2026-05-04 08:24 51.71213 -1.79320 23255 ft 403 kts 275°
2026-05-04 08:24 51.71533 -1.83774 23799 ft 406 kts 275°
2026-05-04 08:25 51.71856 -1.88284 24311 ft 409 kts 275°
2026-05-04 08:25 51.72182 -1.92854 24791 ft 412 kts 275°
2026-05-04 08:25 51.72511 -1.97496 25249 ft 416 kts 275°
2026-05-04 08:25 51.72842 -2.02186 25449 ft 426 kts 275°
2026-05-04 08:26 51.73179 -2.06997 25467 ft 440 kts 275°
2026-05-04 08:27 51.75643 -2.43004 27900 ft 476 kts 275°
2026-05-04 08:28 51.75996 -2.48305 28305 ft 478 kts 275°
2026-05-04 08:28 51.76347 -2.53600 28666 ft 482 kts 275°
2026-05-04 08:28 51.76702 -2.59019 28963 ft 486 kts 275°
2026-05-04 08:28 51.77052 -2.64382 29259 ft 490 kts 275°
2026-05-04 08:29 51.77406 -2.69841 29697 ft 491 kts 275°
2026-05-04 08:29 51.77758 -2.75313 30155 ft 491 kts 275°
2026-05-04 08:29 51.78109 -2.80812 30500 ft 494 kts 276°
2026-05-04 08:31 51.80499 -3.19423 33283 ft 494 kts 276°
2026-05-04 08:33 51.82987 -3.57539 35797 ft 484 kts 283°
2026-05-04 08:33 51.83667 -3.62798 35970 ft 486 kts 283°
2026-05-04 08:35 51.89148 -4.05497 35996 ft 486 kts 283°
2026-05-04 08:35 51.90487 -4.16161 35997 ft 487 kts 283°
2026-05-04 08:37 51.95129 -4.53817 36012 ft 489 kts 283°
2026-05-04 08:38 51.96435 -4.64607 35735 ft 488 kts 283°
2026-05-04 08:38 51.97077 -4.69940 36163 ft 489 kts 282°
2026-05-04 08:38 51.97730 -4.75387 35861 ft 492 kts 282°
2026-05-04 08:40 52.02214 -5.13440 36011 ft 493 kts 282°
2026-05-04 08:40 52.02611 -5.18932 35999 ft 495 kts 274°
2026-05-04 08:41 52.02158 -5.30126 36011 ft 499 kts 265°
2026-05-04 08:41 52.01393 -5.41253 36024 ft 497 kts 265°